| time (UTC) | temp C | wind direction | speed KPH | gust KPH | rain 1hr cm | rain 24hr cm | rain mn cm | humidity % | barometer mb |
| 20260506112505 | 13 | 26 | 1.6 | 12.9 | 0.00 | 0.00 | 0.00 | 83 | 1011.2 |
| 20260506112006 | 13 | 12 | 0.0 | 9.7 | 0.00 | 0.00 | 0.00 | 83 | 1011.0 |
| 20260506111513 | 13 | 354 | 3.2 | 9.7 | 0.00 | 0.00 | 0.00 | 83 | 1010.9 |
| 20260506111006 | 13 | 15 | 3.2 | 11.3 | 0.00 | 0.00 | 0.00 | 83 | 1010.8 |
| 20260506110509 | 13 | 30 | 1.6 | 12.9 | 0.00 | 0.00 | 0.00 | 84 | 1010.8 |
| 20260506110020 | 14 | 307 | 3.2 | 12.9 | 0.00 | 0.00 | 0.00 | 84 | 1010.7 |
| 20260506105507 | 14 | 8 | 4.8 | 12.9 | 0.00 | 0.00 | 0.00 | 85 | 1010.6 |
| 20260506105011 | 13 | 50 | 3.2 | 11.3 | 0.00 | 0.00 | 0.00 | 85 | 1010.6 |
| 20260506104522 | 13 | 338 | 1.6 | 11.3 | 0.00 | 0.00 | 0.00 | 85 | 1010.4 |
| 20260506104008 | 13 | 26 | 4.8 | 11.3 | 0.00 | 0.00 | 0.00 | 85 | 1010.3 |
| 20260506103506 | 13 | 347 | 1.6 | 11.3 | 0.00 | 0.00 | 0.00 | 86 | 1010.2 |
| 20260506103030 | 13 | 305 | 3.2 | 11.3 | 0.00 | 0.00 | 0.00 | 87 | 1010.3 |
| 20260506102509 | 13 | 69 | 4.8 | 12.9 | 0.00 | 0.00 | 0.00 | 87 | 1010.2 |
| 20260506102014 | 13 | 57 | 3.2 | 12.9 | 0.00 | 0.00 | 0.00 | 88 | 1010.1 |
| 20260506101538 | 13 | 1 | 1.6 | 12.9 | 0.00 | 0.00 | 0.00 | 88 | 1010.0 |
| 20260506101010 | 13 | 39 | 4.8 | 12.9 | 0.00 | 0.00 | 0.00 | 88 | 1010.0 |
| 20260506100506 | 14 | 42 | 3.2 | 11.3 | 0.00 | 0.00 | 0.00 | 88 | 1009.9 |
| 20260506100027 | 14 | 42 | 3.2 | 9.7 | 0.00 | 0.00 | 0.00 | 87 | 1009.8 |
| 20260506095506 | 14 | 96 | 1.6 | 12.9 | 0.00 | 0.00 | 0.00 | 87 | 1009.7 |
| 20260506095009 | 14 | 352 | 3.2 | 12.9 | 0.00 | 0.00 | 0.00 | 87 | 1009.7 |
| 20260506094504 | 15 | 5 | 1.6 | 11.3 | 0.00 | 0.00 | 0.00 | 87 | 1009.7 |
| 20260506094002 | 15 | 319 | 4.8 | 9.7 | 0.00 | 0.00 | 0.00 | 87 | 1009.7 |
| 20260506093504 | 15 | 124 | 0.0 | 9.7 | 0.00 | 0.00 | 0.00 | 87 | 1009.6 |
| 20260506093009 | 15 | 97 | 3.2 | 9.7 | 0.00 | 0.00 | 0.00 | 86 | 1009.6 |
| 20260506092507 | 15 | 281 | 1.6 | 9.7 | 0.00 | 0.00 | 0.00 | 86 | 1009.7 |
| 20260506092003 | 15 | 14 | 1.6 | 8.0 | 0.00 | 0.00 | 0.00 | 85 | 1009.6 |
| 20260506091510 | 15 | 274 | 3.2 | 8.0 | 0.00 | 0.00 | 0.00 | 85 | 1009.6 |
| 20260506091004 | 15 | 319 | 1.6 | 9.7 | 0.00 | 0.00 | 0.00 | 84 | 1009.6 |
| 20260506090502 | 16 | 333 | 3.2 | 9.7 | 0.00 | 0.00 | 0.00 | 83 | 1009.5 |
| 20260506090008 | 16 | 347 | 0.0 | 9.7 | 0.00 | 0.00 | 0.00 | 82 | 1009.3 |
| 20260506085503 | 16 | 323 | 3.2 | 8.0 | 0.00 | 0.00 | 0.00 | 82 | 1009.4 |
| 20260506085003 | 16 | 51 | 0.0 | 3.2 | 0.00 | 0.00 | 0.00 | 82 | 1009.3 |
| 20260506084509 | 16 | 8 | 0.0 | 6.4 | 0.00 | 0.00 | 0.00 | 82 | 1009.3 |
| 20260506084003 | 16 | 29 | 1.6 | 6.4 | 0.00 | 0.00 | 0.00 | 81 | 1009.2 |
| 20260506083502 | 16 | 6 | 1.6 | 6.4 | 0.00 | 0.00 | 0.00 | 81 | 1009.2 |
| 20260506083002 | 16 | 1 | 1.6 | 6.4 | 0.00 | 0.00 | 0.00 | 81 | 1009.0 |
| 20260506082504 | 16 | 41 | 1.6 | 6.4 | 0.00 | 0.00 | 0.00 | 82 | 1009.0 |
| 20260506082001 | 16 | 60 | 1.6 | 6.4 | 0.00 | 0.00 | 0.00 | 82 | 1008.9 |
| 20260506081505 | 16 | 26 | 1.6 | 11.3 | 0.00 | 0.00 | 0.00 | 81 | 1008.8 |
| 20260506081008 | 17 | 42 | 1.6 | 11.3 | 0.00 | 0.00 | 0.00 | 81 | 1008.8 |
| 20260506080504 | 17 | 72 | 1.6 | 11.3 | 0.00 | 0.00 | 0.00 | 82 | 1008.8 |
| 20260506073506 | 17 | 312 | 0.0 | 6.4 | 0.00 | 0.00 | 0.00 | 81 | 1009.1 |
| 20260506073012 | 17 | 340 | 1.6 | 6.4 | 0.00 | 0.00 | 0.00 | 81 | 1009.1 |
| 20260506072504 | 17 | 22 | 3.2 | 8.0 | 0.00 | 0.00 | 0.00 | 81 | 1009.1 |
| 20260506072003 | 17 | 81 | 3.2 | 8.0 | 0.00 | 0.00 | 0.00 | 81 | 1009.2 |
| 20260506071506 | 17 | 125 | 1.6 | 9.7 | 0.00 | 0.00 | 0.00 | 81 | 1009.1 |
| 20260506071005 | 17 | 51 | 1.6 | 9.7 | 0.00 | 0.00 | 0.00 | 81 | 1009.1 |
| 20260506070504 | 17 | 98 | 0.0 | 4.8 | 0.00 | 0.00 | 0.00 | 81 | 1009.2 |
| 20260506062507 | 18 | 51 | 6.4 | 12.9 | 0.00 | 0.00 | 0.00 | 80 | 1009.0 |
| 20260506062006 | 18 | 56 | 6.4 | 12.9 | 0.00 | 0.00 | 0.00 | 80 | 1009.1 |
| 20260506061511 | 18 | 70 | 1.6 | 9.7 | 0.00 | 0.00 | 0.00 | 81 | 1009.0 |
| 20260506061002 | 18 | 31 | 3.2 | 9.7 | 0.00 | 0.00 | 0.00 | 80 | 1008.9 |
| 20260506060504 | 18 | 63 | 3.2 | 9.7 | 0.00 | 0.00 | 0.00 | 80 | 1008.8 |
| 20260506051003 | 20 | 347 | 1.6 | 9.7 | 0.00 | 0.00 | 0.00 | 79 | 1008.7 |
| 20260506050503 | 20 | 33 | 3.2 | 9.7 | 0.00 | 0.00 | 0.00 | 79 | 1008.6 |
| 20260506045005 | 21 | 355 | 1.6 | 12.9 | 0.00 | 0.00 | 0.00 | 78 | 1008.6 |
| 20260506044509 | 21 | 359 | 1.6 | 12.9 | 0.00 | 0.00 | 0.00 | 78 | 1008.5 |
| 20260506044005 | 21 | 47 | 0.0 | 11.3 | 0.00 | 0.00 | 0.00 | 78 | 1008.5 |
| 20260506043508 | 21 | 302 | 3.2 | 11.3 | 0.00 | 0.00 | 0.00 | 77 | 1008.4 |
| 20260506043011 | 21 | 347 | 3.2 | 11.3 | 0.00 | 0.00 | 0.00 | 77 | 1008.6 |
| 20260506042508 | 21 | 42 | 3.2 | 9.7 | 0.00 | 0.00 | 0.00 | 76 | 1008.4 |
| 20260506042007 | 21 | 3 | 1.6 | 9.7 | 0.00 | 0.00 | 0.00 | 76 | 1008.4 |
| 20260506041514 | 21 | 48 | 1.6 | 11.3 | 0.00 | 0.00 | 0.00 | 76 | 1008.4 |
| 20260506041009 | 21 | 77 | 3.2 | 11.3 | 0.00 | 0.00 | 0.00 | 76 | 1008.3 |
| 20260506040506 | 22 | 174 | 1.6 | 11.3 | 0.00 | 0.00 | 0.00 | 76 | 1008.2 |
| 20260506040032 | 22 | 68 | 1.6 | 9.7 | 0.00 | 0.00 | 0.00 | 75 | 1008.2 |
| 20260506035507 | 22 | 45 | 3.2 | 9.7 | 0.00 | 0.00 | 0.00 | 75 | 1008.1 |
| 20260506035007 | 22 | 4 | 3.2 | 6.4 | 0.00 | 0.00 | 0.00 | 75 | 1007.9 |
| 20260506034514 | 22 | 21 | 0.0 | 4.8 | 0.00 | 0.00 | 0.00 | 75 | 1007.9 |
| 20260506034006 | 22 | 39 | 0.0 | 4.8 | 0.00 | 0.00 | 0.00 | 75 | 1008.0 |
| 20260506033504 | 22 | 20 | 0.0 | 6.4 | 0.00 | 0.00 | 0.00 | 76 | 1007.7 |
| 20260506033010 | 22 | 77 | 1.6 | 6.4 | 0.00 | 0.00 | 0.00 | 75 | 1007.6 |
| 20260506032508 | 22 | 58 | 0.0 | 9.7 | 0.00 | 0.00 | 0.00 | 75 | 1007.6 |
| 20260506032008 | 22 | 34 | 1.6 | 11.3 | 0.00 | 0.00 | 0.00 | 74 | 1007.6 |
| 20260506031514 | 23 | 29 | 1.6 | 11.3 | 0.00 | 0.00 | 0.00 | 74 | 1007.8 |
| 20260506031007 | 23 | 302 | 1.6 | 12.9 | 0.00 | 0.00 | 0.00 | 74 | 1007.9 |
| 20260506030508 | 23 | 25 | 3.2 | 16.1 | 0.00 | 0.00 | 0.00 | 74 | 1007.7 |
| 20260506030016 | 24 | 51 | 3.2 | 16.1 | 0.00 | 0.00 | 0.00 | 74 | 1007.5 |
| 20260506025507 | 25 | 54 | 0.0 | 4.8 | 0.00 | 0.00 | 0.00 | 83 | 1007.3 |
| 20260506025007 | 25 | 281 | 0.0 | 1.6 | 0.00 | 0.00 | 0.00 | 84 | 1007.1 |
| 20260506024518 | 25 | 280 | 0.0 | 1.6 | 0.00 | 0.00 | 0.00 | 84 | 1007.1 |
| 20260506024010 | 25 | 253 | 0.0 | 1.6 | 0.00 | 0.00 | 0.00 | 84 | 1007.0 |
| 20260506023508 | 25 | 289 | 0.0 | 8.0 | 0.00 | 0.00 | 0.00 | 84 | 1006.7 |
| 20260506023026 | 25 | 210 | 1.6 | 8.0 | 0.00 | 0.00 | 0.00 | 84 | 1006.5 |
| 20260506022504 | 25 | 212 | 0.0 | 4.8 | 0.00 | 0.00 | 0.00 | 84 | 1006.5 |
| 20260506022003 | 25 | 227 | 1.6 | 4.8 | 0.00 | 0.00 | 0.00 | 84 | 1006.2 |
| 20260506021523 | 25 | 169 | 0.0 | 1.6 | 0.00 | 0.00 | 0.00 | 84 | 1005.9 |
| 20260506021008 | 25 | 237 | 0.0 | 6.4 | 0.00 | 0.00 | 0.00 | 84 | 1005.9 |
| 20260506020507 | 25 | 209 | 0.0 | 6.4 | 0.00 | 0.00 | 0.00 | 84 | 1005.8 |
| 20260506020016 | 25 | 161 | 1.6 | 3.2 | 0.00 | 0.00 | 0.00 | 84 | 1005.8 |
| 20260506015507 | 25 | 143 | 0.0 | 3.2 | 0.00 | 0.00 | 0.00 | 84 | 1005.8 |
| 20260506015012 | 25 | 1 | 0.0 | 1.6 | 0.00 | 0.00 | 0.00 | 84 | 1005.9 |
| 20260506014516 | 25 | 9 | 0.0 | 3.2 | 0.00 | 0.00 | 0.00 | 84 | 1006.0 |
| 20260506014007 | 25 | 287 | 0.0 | 3.2 | 0.00 | 0.00 | 0.00 | 84 | 1005.7 |
| 20260506013508 | 25 | 328 | 1.6 | 3.2 | 0.00 | 0.00 | 0.00 | 83 | 1005.5 |
| 20260506013018 | 25 | 158 | 0.0 | 1.6 | 0.00 | 0.00 | 0.00 | 82 | 1005.3 |
| 20260506012507 | 25 | 157 | 0.0 | 6.4 | 0.00 | 0.00 | 0.00 | 82 | 1005.4 |
| 20260506012007 | 25 | 184 | 1.6 | 8.0 | 0.00 | 0.00 | 0.00 | 82 | 1005.2 |
| 20260506011507 | 26 | 167 | 1.6 | 8.0 | 0.00 | 0.00 | 0.00 | 82 | 1005.0 |
| 20260506011008 | 26 | 201 | 0.0 | 8.0 | 0.00 | 0.00 | 0.00 | 81 | 1004.9 |
| 20260506010511 | 26 | 108 | 1.6 | 8.0 | 0.00 | 0.00 | 0.00 | 81 | 1004.8 |
| 20260506010030 | 26 | 144 | 1.6 | 11.3 | 0.00 | 0.00 | 0.00 | 81 | 1004.7 |
| 20260506005508 | 26 | 131 | 3.2 | 11.3 | 0.00 | 0.00 | 0.00 | 80 | 1004.8 |
| 20260506005008 | 26 | 195 | 1.6 | 11.3 | 0.00 | 0.00 | 0.00 | 80 | 1005.0 |
| 20260506004520 | 26 | 119 | 4.8 | 17.7 | 0.00 | 0.00 | 0.00 | 79 | 1005.0 |
| 20260506004007 | 26 | 130 | 4.8 | 17.7 | 0.00 | 0.00 | 0.00 | 79 | 1005.0 |
| 20260506003512 | 27 | 150 | 3.2 | 12.9 | 0.00 | 0.00 | 0.00 | 78 | 1004.7 |
| 20260506003004 | 27 | 9 | 3.2 | 14.5 | 0.00 | 0.00 | 0.00 | 78 | 1004.7 |
| 20260506002506 | 27 | 174 | 3.2 | 14.5 | 0.00 | 0.00 | 0.00 | 77 | 1004.7 |
| 20260506002004 | 27 | 98 | 1.6 | 9.7 | 0.00 | 0.00 | 0.00 | 78 | 1004.6 |
| 20260506001508 | 27 | 120 | 1.6 | 9.7 | 0.00 | 0.00 | 0.00 | 78 | 1004.6 |
| 20260506001004 | 27 | 148 | 3.2 | 12.9 | 0.00 | 0.00 | 0.00 | 77 | 1004.5 |
| 20260506000508 | 27 | 155 | 1.6 | 12.9 | 0.00 | 0.00 | 0.00 | 78 | 1004.5 |
| 20260506000013 | 27 | 153 | 3.2 | 16.1 | 0.00 | 0.00 | 0.00 | 78 | 1004.5 |
| 20260505235504 | 27 | 142 | 6.4 | 17.7 | 0.00 | 0.00 | 0.00 | 77 | 1004.5 |
| 20260505235007 | 27 | 186 | 4.8 | 17.7 | 0.00 | 0.00 | 0.00 | 77 | 1004.6 |
| 20260505234531 | 27 | 106 | 6.4 | 12.9 | 0.00 | 0.00 | 0.00 | 77 | 1004.8 |
| 20260505234007 | 27 | 165 | 3.2 | 11.3 | 0.00 | 0.00 | 0.00 | 77 | 1004.9 |
| 20260505233506 | 27 | 173 | 3.2 | 16.1 | 0.00 | 0.00 | 0.00 | 76 | 1004.6 |
| 20260505233032 | 28 | 205 | 4.8 | 17.7 | 0.00 | 0.00 | 0.00 | 76 | 1004.5 |
| 20260505232508 | 28 | 134 | 4.8 | 17.7 | 0.00 | 0.00 | 0.00 | 76 | 1004.5 |
| 20260505232007 | 28 | 201 | 6.4 | 17.7 | 0.00 | 0.00 | 0.00 | 75 | 1004.4 |
| 20260505231503 | 28 | 113 | 8.0 | 17.7 | 0.00 | 0.00 | 0.00 | 75 | 1004.4 |
| 20260505231003 | 28 | 198 | 4.8 | 22.5 | 0.00 | 0.00 | 0.00 | 74 | 1004.4 |
| 20260505230504 | 28 | 276 | 8.0 | 22.5 | 0.00 | 0.00 | 0.00 | 74 | 1004.4 |
| 20260505230010 | 28 | 166 | 3.2 | 20.9 | 0.00 | 0.00 | 0.00 | 75 | 1004.4 |
| 20260505225505 | 28 | 174 | 6.4 | 20.9 | 0.00 | 0.00 | 0.00 | 74 | 1004.4 |
| 20260505225006 | 28 | 206 | 6.4 | 17.7 | 0.00 | 0.00 | 0.00 | 73 | 1004.2 |
| 20260505224514 | 29 | 200 | 6.4 | 16.1 | 0.00 | 0.00 | 0.00 | 73 | 1004.2 |
| 20260505224009 | 29 | 185 | 4.8 | 17.7 | 0.00 | 0.00 | 0.00 | 72 | 1004.1 |
| 20260505223512 | 30 | 181 | 8.0 | 17.7 | 0.00 | 0.00 | 0.00 | 72 | 1004.1 |
| 20260505223017 | 30 | 48 | 8.0 | 17.7 | 0.00 | 0.00 | 0.00 | 71 | 1004.1 |
| 20260505222513 | 30 | 179 | 6.4 | 17.7 | 0.00 | 0.00 | 0.00 | 71 | 1004.2 |
| 20260505222009 | 30 | 125 | 4.8 | 17.7 | 0.00 | 0.00 | 0.00 | 72 | 1004.1 |
| 20260505221524 | 30 | 181 | 8.0 | 14.5 | 0.00 | 0.00 | 0.00 | 70 | 1004.0 |
| 20260505221015 | 30 | 165 | 4.8 | 12.9 | 0.00 | 0.00 | 0.00 | 69 | 1003.8 |
| 20260505220507 | 31 | 188 | 3.2 | 14.5 | 0.00 | 0.00 | 0.00 | 68 | 1004.1 |
| 20260505220008 | 31 | 150 | 4.8 | 16.1 | 0.00 | 0.00 | 0.00 | 68 | 1004.2 |
| 20260505215505 | 31 | 208 | 6.4 | 16.1 | 0.00 | 0.00 | 0.00 | 68 | 1004.1 |
| 20260505215005 | 31 | 206 | 6.4 | 16.1 | 0.00 | 0.00 | 0.00 | 66 | 1003.9 |
| 20260505214512 | 31 | 147 | 4.8 | 11.3 | 0.00 | 0.00 | 0.00 | 66 | 1003.9 |
| 20260505214005 | 31 | 129 | 1.6 | 12.9 | 0.00 | 0.00 | 0.00 | 68 | 1003.9 |
| 20260505213507 | 31 | 162 | 3.2 | 14.5 | 0.00 | 0.00 | 0.00 | 66 | 1004.0 |
| 20260505213017 | 31 | 251 | 3.2 | 16.1 | 0.00 | 0.00 | 0.00 | 67 | 1004.2 |
| 20260505212508 | 31 | 255 | 4.8 | 16.1 | 0.00 | 0.00 | 0.00 | 66 | 1004.2 |
| 20260505212009 | 31 | 170 | 4.8 | 17.7 | 0.00 | 0.00 | 0.00 | 68 | 1004.2 |
| 20260505211520 | 31 | 232 | 6.4 | 17.7 | 0.00 | 0.00 | 0.00 | 66 | 1004.2 |
| 20260505211008 | 31 | 207 | 8.0 | 20.9 | 0.00 | 0.00 | 0.00 | 66 | 1004.4 |
| 20260505210510 | 31 | 198 | 4.8 | 20.9 | 0.00 | 0.00 | 0.00 | 68 | 1004.5 |
| 20260505210022 | 31 | 187 | 8.0 | 19.3 | 0.00 | 0.00 | 0.00 | 67 | 1004.3 |
| 20260505205509 | 31 | 210 | 3.2 | 19.3 | 0.00 | 0.00 | 0.00 | 68 | 1004.3 |
| 20260505205010 | 31 | 127 | 4.8 | 16.1 | 0.00 | 0.00 | 0.00 | 68 | 1004.5 |
| 20260505204511 | 31 | 131 | 8.0 | 16.1 | 0.00 | 0.00 | 0.00 | 68 | 1004.6 |
| 20260505204010 | 31 | 130 | 4.8 | 16.1 | 0.00 | 0.00 | 0.00 | 68 | 1004.7 |
| 20260505203505 | 31 | 241 | 4.8 | 19.3 | 0.00 | 0.00 | 0.00 | 67 | 1004.9 |
| 20260505203026 | 30 | 154 | 4.8 | 19.3 | 0.00 | 0.00 | 0.00 | 68 | 1004.8 |
| 20260505202509 | 31 | 222 | 8.0 | 19.3 | 0.00 | 0.00 | 0.00 | 67 | 1005.0 |
| 20260505202009 | 30 | 113 | 6.4 | 19.3 | 0.00 | 0.00 | 0.00 | 68 | 1005.0 |
| 20260505201528 | 30 | 108 | 6.4 | 19.3 | 0.00 | 0.00 | 0.00 | 69 | 1005.0 |
| 20260505201008 | 30 | 195 | 6.4 | 16.1 | 0.00 | 0.00 | 0.00 | 68 | 1005.1 |
| 20260505200509 | 30 | 45 | 3.2 | 17.7 | 0.00 | 0.00 | 0.00 | 70 | 1005.2 |
| 20260505200021 | 30 | 117 | 8.0 | 17.7 | 0.00 | 0.00 | 0.00 | 69 | 1005.2 |
| 20260505195513 | 30 | 219 | 4.8 | 17.7 | 0.00 | 0.00 | 0.00 | 70 | 1005.2 |
| 20260505195010 | 30 | 227 | 8.0 | 19.3 | 0.00 | 0.00 | 0.00 | 70 | 1005.3 |
| 20260505194523 | 30 | 173 | 6.4 | 19.3 | 0.00 | 0.00 | 0.00 | 69 | 1005.3 |
| 20260505194014 | 29 | 221 | 8.0 | 17.7 | 0.00 | 0.00 | 0.00 | 70 | 1005.3 |
| 20260505193503 | 30 | 203 | 8.0 | 17.7 | 0.00 | 0.00 | 0.00 | 70 | 1005.3 |
| 20260505193013 | 29 | 212 | 8.0 | 19.3 | 0.00 | 0.00 | 0.00 | 70 | 1005.3 |
| 20260505192508 | 29 | 210 | 8.0 | 19.3 | 0.00 | 0.00 | 0.00 | 70 | 1005.3 |
| 20260505192006 | 29 | 95 | 4.8 | 17.7 | 0.00 | 0.00 | 0.00 | 71 | 1005.3 |
| 20260505191520 | 29 | 214 | 4.8 | 19.3 | 0.00 | 0.00 | 0.00 | 71 | 1005.4 |
| 20260505191011 | 29 | 214 | 6.4 | 19.3 | 0.00 | 0.00 | 0.00 | 72 | 1005.4 |
| 20260505190506 | 28 | 194 | 9.7 | 19.3 | 0.00 | 0.00 | 0.00 | 71 | 1005.5 |
| 20260505190022 | 28 | 293 | 6.4 | 20.9 | 0.00 | 0.00 | 0.00 | 72 | 1005.6 |
| 20260505185510 | 28 | 219 | 8.0 | 20.9 | 0.00 | 0.00 | 0.00 | 72 | 1005.6 |
| 20260505185012 | 28 | 171 | 8.0 | 17.7 | 0.00 | 0.00 | 0.00 | 73 | 1005.6 |
| 20260505184527 | 28 | 232 | 6.4 | 22.5 | 0.00 | 0.00 | 0.00 | 73 | 1005.7 |
| 20260505184012 | 28 | 166 | 11.3 | 22.5 | 0.00 | 0.00 | 0.00 | 71 | 1005.7 |
| 20260505183511 | 28 | 139 | 6.4 | 22.5 | 0.00 | 0.00 | 0.00 | 72 | 1005.8 |
| 20260505183027 | 28 | 187 | 11.3 | 22.5 | 0.00 | 0.00 | 0.00 | 72 | 1005.9 |
| 20260505182517 | 28 | 229 | 6.4 | 19.3 | 0.00 | 0.00 | 0.00 | 72 | 1005.9 |
| 20260505182007 | 28 | 196 | 6.4 | 20.9 | 0.00 | 0.00 | 0.00 | 73 | 1005.9 |
| 20260505181514 | 27 | 146 | 8.0 | 25.7 | 0.00 | 0.00 | 0.00 | 73 | 1006.0 |
| 20260505181009 | 27 | 252 | 8.0 | 25.7 | 0.00 | 0.00 | 0.00 | 73 | 1005.9 |
| 20260505180508 | 27 | 209 | 11.3 | 29.0 | 0.00 | 0.00 | 0.00 | 72 | 1006.0 |
| 20260505180037 | 27 | 125 | 11.3 | 29.0 | 0.00 | 0.00 | 0.00 | 74 | 1005.9 |
| 20260505175509 | 27 | 307 | 8.0 | 22.5 | 0.00 | 0.00 | 0.00 | 75 | 1005.8 |
| 20260505175008 | 27 | 233 | 3.2 | 25.7 | 0.00 | 0.00 | 0.00 | 77 | 1005.9 |
| 20260505174545 | 26 | 252 | 11.3 | 25.7 | 0.00 | 0.00 | 0.00 | 75 | 1005.8 |
| 20260505174009 | 27 | 176 | 12.9 | 25.7 | 0.00 | 0.00 | 0.00 | 74 | 1005.8 |
| 20260505173508 | 27 | 188 | 6.4 | 20.9 | 0.00 | 0.00 | 0.00 | 75 | 1005.8 |
| 20260505173032 | 27 | 187 | 9.7 | 20.9 | 0.00 | 0.00 | 0.00 | 75 | 1005.9 |
| 20260505172511 | 27 | 146 | 6.4 | 22.5 | 0.00 | 0.00 | 0.00 | 76 | 1005.9 |
| 20260505172012 | 27 | 165 | 8.0 | 22.5 | 0.00 | 0.00 | 0.00 | 76 | 1005.8 |
| 20260505171526 | 26 | 237 | 3.2 | 19.3 | 0.00 | 0.00 | 0.00 | 78 | 1005.9 |
| 20260505171011 | 26 | 187 | 1.6 | 22.5 | 0.00 | 0.00 | 0.00 | 79 | 1005.8 |
| 20260505170505 | 26 | 214 | 9.7 | 22.5 | 0.00 | 0.00 | 0.00 | 78 | 1005.7 |
| 20260505170018 | 26 | 189 | 11.3 | 22.5 | 0.00 | 0.00 | 0.00 | 78 | 1005.7 |
| 20260505165509 | 26 | 173 | 9.7 | 22.5 | 0.00 | 0.00 | 0.00 | 78 | 1005.7 |
| 20260505165009 | 26 | 183 | 11.3 | 22.5 | 0.00 | 0.00 | 0.00 | 78 | 1005.7 |
| 20260505164522 | 26 | 146 | 9.7 | 24.1 | 0.00 | 0.00 | 0.00 | 78 | 1005.8 |
| 20260505164008 | 26 | 217 | 6.4 | 24.1 | 0.00 | 0.00 | 0.00 | 78 | 1005.8 |
| 20260505163510 | 25 | 199 | 8.0 | 20.9 | 0.00 | 0.00 | 0.00 | 78 | 1005.9 |
| 20260505163025 | 25 | 202 | 11.3 | 22.5 | 0.00 | 0.00 | 0.00 | 78 | 1006.0 |
| 20260505162508 | 25 | 205 | 8.0 | 22.5 | 0.00 | 0.00 | 0.00 | 79 | 1006.0 |
| 20260505162010 | 25 | 212 | 11.3 | 22.5 | 0.00 | 0.00 | 0.00 | 79 | 1006.0 |
| 20260505161528 | 25 | 196 | 9.7 | 32.2 | 0.00 | 0.00 | 0.00 | 80 | 1005.9 |
| 20260505161009 | 25 | 211 | 11.3 | 32.2 | 0.00 | 0.00 | 0.00 | 79 | 1005.9 |
| 20260505160508 | 25 | 156 | 14.5 | 32.2 | 0.00 | 0.00 | 0.00 | 79 | 1005.8 |
| 20260505153006 | 23 | 174 | 12.9 | 25.7 | 0.00 | 0.00 | 0.00 | 82 | 1005.7 |
| 20260505152505 | 23 | 230 | 9.7 | 25.7 | 0.00 | 0.00 | 0.00 | 82 | 1005.8 |
| 20260505152007 | 23 | 95 | 9.7 | 30.6 | 0.00 | 0.00 | 0.00 | 82 | 1005.9 |
| 20260505151512 | 23 | 185 | 12.9 | 30.6 | 0.00 | 0.00 | 0.00 | 82 | 1006.1 |
| 20260505151009 | 23 | 200 | 11.3 | 24.1 | 0.00 | 0.00 | 0.00 | 82 | 1006.1 |
| 20260505150510 | 23 | 198 | 9.7 | 24.1 | 0.00 | 0.00 | 0.00 | 82 | 1006.2 |
| 20260505140504 | 23 | 202 | 12.9 | 25.7 | 0.00 | 0.00 | 0.00 | 84 | 1005.5 |
| 20260505125004 | 21 | 221 | 9.7 | 25.7 | 0.00 | 0.00 | 0.00 | 89 | 1005.2 |
| 20260505124512 | 21 | 162 | 6.4 | 20.9 | 0.00 | 0.00 | 0.00 | 90 | 1005.1 |
| 20260505124008 | 21 | 216 | 8.0 | 20.9 | 0.00 | 0.00 | 0.00 | 90 | 1005.1 |
| 20260505123507 | 21 | 211 | 6.4 | 22.5 | 0.00 | 0.00 | 0.00 | 90 | 1005.1 |
| 20260505123017 | 21 | 196 | 4.8 | 22.5 | 0.00 | 0.00 | 0.00 | 90 | 1005.2 |
| 20260505122507 | 21 | 176 | 4.8 | 20.9 | 0.00 | 0.00 | 0.00 | 90 | 1005.0 |
| 20260505122008 | 20 | 195 | 6.4 | 24.1 | 0.00 | 0.00 | 0.00 | 90 | 1005.0 |
| 20260505121522 | 20 | 216 | 9.7 | 24.1 | 0.00 | 0.00 | 0.00 | 90 | 1004.8 |
| 20260505121009 | 20 | 250 | 8.0 | 19.3 | 0.00 | 0.00 | 0.00 | 90 | 1004.8 |
| 20260505120508 | 20 | 30 | 8.0 | 19.3 | 0.00 | 0.00 | 0.00 | 90 | 1004.8 |
| 20260505120031 | 20 | 213 | 8.0 | 22.5 | 0.00 | 0.00 | 0.00 | 90 | 1004.9 |
| 20260505115505 | 20 | 229 | 9.7 | 22.5 | 0.00 | 0.00 | 0.00 | 90 | 1004.9 |
| 20260505115005 | 20 | 228 | 9.7 | 20.9 | 0.00 | 0.00 | 0.00 | 90 | 1004.8 |
| 20260505114510 | 20 | 256 | 9.7 | 24.1 | 0.00 | 0.00 | 0.00 | 90 | 1004.8 |
| 20260505114007 | 20 | 246 | 9.7 | 24.1 | 0.00 | 0.00 | 0.00 | 90 | 1004.6 |
| 20260505113510 | 20 | 231 | 8.0 | 17.7 | 0.00 | 0.00 | 0.00 | 90 | 1004.8 |
| 20260505113019 | 20 | 165 | 4.8 | 22.5 | 0.00 | 0.00 | 0.00 | 90 | 1004.7 |